カタログに戻る

ONEWEB-0261

運用中通信PO
NORAD 48979·PAYLOAD·🇬🇧 United Kingdom

打ち上げ Jul 1, 2021 から Vostochny Cosmodrome

Loading…

次のパス (今後24時間)

TLE

最新Source: CelesTrak SupGP

元期: Sep 14, 2026, 10:49 UTC

1 48979C 21060N   26257.45084907 -.00001937  00000+0 -50729-2 0  2578
2 48979  87.9135 211.0567 0002242  73.4391  17.7198 13.16594551    15

AllMySatでONEWEB-0261をリアルタイム追跡

Download on the App Store